Theta_e
345 341 333 338 342 344 345 344 343 342 341 341 341 341 341 339 333 336 339 341 341 340 337 335 335 335 333 332 339 338 336 337 340 339 338 338 338 339 340 341 342 342 336
345 338 331 335 341 343 344 344 343 343 342 342 343 343 342 339 336 338 338 335 334 339 340 340 338 336 331 331 331 329 332 335 339 338 337 337 336 337 339 343 344 339 338
346 343 331 334 339 341 343 344 344 344 343 343 343 343 342 338 336 335 332 329 330 335 339 340 338 330 324 322 324 336 333 335 336 337 342 344 345 337 336 337 337 337 337
347 344 337 333 335 337 340 342 344 344 344 344 343 343 342 337 332 328 327 327 326 322 325 327 324 320 320 320 324 329 333 333 329 338 341 341 345 338 337 337 337 337 337
347 346 338 333 333 334 335 337 340 342 342 343 343 342 340 332 328 325 324 324 324 324 323 321 320 320 320 321 322 327 325 326 329 338 337 339 341 336 333 334 335 334 338
346 345 338 334 331 329 328 328 329 331 336 339 340 339 331 326 323 323 326 328 329 327 323 321 322 321 322 322 321 319 320 321 337 334 338 338 340 332 331 330 331 332 334
345 345 339 334 331 329 328 326 324 324 327 331 332 329 325 323 325 328 327 325 325 327 324 326 326 324 327 334 332 327 321 324 335 333 336 338 335 327 331 331 332 330 331
345 345 346 335 332 331 329 327 323 321 321 323 323 323 323 326 328 328 328 325 325 327 327 332 333 326 330 338 336 337 332 325 331 333 335 335 318 317 319 321 321 323 323
344 345 347 342 334 332 330 328 323 321 321 322 323 323 327 328 328 330 332 328 324 329 331 333 335 338 340 339 339 339 336 331 334 331 333 334 318 318 318 318 318 318 319
342 343 345 345 343 335 331 327 323 323 324 323 323 327 329 328 331 333 335 332 325 329 332 333 337 338 340 341 340 340 340 333 338 330 333 333 316 316 317 318 319 319 319
340 342 342 342 342 342 340 329 323 325 324 326 327 330 331 339 336 335 342 334 330 327 331 333 336 337 339 341 340 341 341 343 339 332 332 319 317 316 316 317 317 317 318
339 340 341 341 341 341 341 339 338 337 334 337 337 330 340 343 342 342 341 335 335 328 329 332 336 336 338 345 344 342 348 344 341 337 334 321 320 320 320 320 319 319 319
340 340 341 342 342 342 341 342 340 339 340 341 342 338 342 342 342 342 341 340 340 336 338 334 337 340 343 345 345 346 346 346 343 341 337 326 325 325 325 326 326 325 324
339 342 343 343 343 343 342 342 342 340 340 341 343 343 344 343 342 341 340 340 342 341 342 343 341 342 344 344 344 344 344 346 346 345 342 332 330 329 329 329 329 330 330
340 342 346 346 343 344 344 343 343 342 340 340 343 344 343 342 342 341 340 339 339 340 341 341 342 342 342 342 343 343 343 344 346 346 345 340 334 333 331 331 331 331 332
341 343 341 347 340 345 344 344 344 343 342 340 341 343 343 343 342 340 339 339 338 339 339 340 340 340 340 339 340 343 343 344 345 346 346 344 339 338 335 333 333 333 334
342 344 333 331 334 342 344 345 344 344 342 341 339 343 343 341 342 341 340 339 338 338 339 340 341 342 341 340 339 340 342 344 345 346 345 345 343 340 339 336 335 334 335
342 344 344 329 329 335 344 344 343 342 342 342 338 340 343 343 341 340 341 340 340 341 341 342 342 342 341 341 341 339 338 342 345 346 346 345 344 344 343 338 336 337 336
342 343 340 334 334 337 344 341 337 341 341 340 340 337 339 342 343 340 341 340 341 341 341 342 342 343 343 342 341 342 342 342 344 345 345 345 344 343 344 344 340 337 337
346 342 341 342 344 343 344 343 341 340 339 340 339 338 338 336 337 340 341 342 342 341 341 342 343 344 342 342 343 342 343 344 345 345 345 345 345 344 343 343 343 340 337
348 346 345 345 344 342 344 344 341 339 339 338 337 337 330 329 331 332 336 339 341 342 341 340 341 339 337 337 340 339 338 340 340 341 343 342 343 345 344 343 342 343 344
346 346 346 346 344 342 343 343 341 339 341 342 342 339 336 332 327 326 334 337 339 336 336 336 334 336 336 335 334 332 330 329 330 333 334 335 338 338 339 340 341 341 342
342 342 343 344 346 343 342 340 339 343 342 343 340 338 338 337 337 337 338 338 336 333 330 332 330 331 332 333 332 331 331 333 330 329 329 330 331 329 331 336 337 339 339
343 342 341 341 342 342 340 341 341 343 343 343 338 338 337 338 340 339 338 337 336 334 332 335 336 334 335 335 336 335 335 333 334 332 331 329 327 328 328 327 329 330 337
343 343 342 341 341 341 341 341 343 343 343 340 338 338 341 340 340 339 339 338 337 336 336 336 336 336 335 334 334 335 334 334 335 333 333 331 332 334 330 329 328 330 330
339 342 342 341 340 339 339 339 339 339 339 338 339 341 340 340 340 339 337 336 337 336 335 334 334 333 333 332 332 332 332 332 332 333 332 331 331 331 332 334 333 330 329
Wind_Speed
20 23 26 22 20 19 19 20 20 20 17 16 15 13 12 11 11 12 12 12 10 10 10 10 9 8 6 7 8 9 9 10 11 12 13 14 14 14 14 14 15 14 15
24 25 27 24 21 19 17 18 19 19 17 15 13 13 11 10 11 11 10 8 7 8 8 8 7 5 4 6 7 8 9 11 10 11 11 11 12 12 13 16 16 14 14
23 24 26 26 23 20 18 18 19 19 18 16 15 13 11 9 10 9 6 6 6 6 7 6 4 4 4 6 9 9 10 11 11 13 16 7 9 10 11 11 12 12 12
23 24 24 25 23 21 20 19 18 18 17 16 15 12 10 10 9 7 5 4 5 6 6 6 5 5 7 9 10 10 10 11 11 15 8 7 6 8 9 9 9 10 9
22 22 23 23 22 20 19 19 18 17 16 15 13 11 10 9 7 6 6 6 6 7 7 7 8 9 10 10 10 10 9 10 12 12 9 7 5 7 7 7 6 7 9
20 20 24 22 21 19 18 17 16 15 15 14 13 12 11 9 8 8 7 7 7 8 8 9 11 12 12 12 10 9 8 10 13 6 7 11 7 8 7 8 9 8 8
21 20 25 23 21 19 17 15 14 13 14 14 13 12 10 10 10 9 7 7 8 9 11 12 12 13 13 12 10 9 8 10 9 6 7 8 6 8 8 8 8 8 8
20 19 21 23 21 18 16 13 11 12 13 14 13 12 12 11 10 9 9 8 9 11 12 13 12 12 10 9 9 8 7 7 7 6 7 5 5 6 6 6 7 7 7
20 18 22 22 22 18 15 13 11 11 12 13 13 13 12 12 11 10 8 8 10 11 13 12 11 8 8 8 7 7 6 7 5 4 5 5 6 6 6 5 6 6 7
20 18 24 20 20 19 17 14 12 12 12 13 13 13 13 12 11 9 7 8 9 12 11 10 7 6 5 4 4 4 4 4 5 3 4 7 6 6 5 6 6 5 6
19 18 19 19 19 18 15 16 15 14 14 14 13 14 13 9 10 7 9 8 8 11 11 10 7 4 2 2 2 2 4 2 3 3 2 4 5 6 6 5 6 6 5
21 19 18 19 19 18 16 16 14 14 13 12 12 15 11 10 9 9 9 10 9 9 10 9 7 4 1 2 5 5 2 2 2 3 4 5 4 5 5 5 5 5 5
20 21 19 20 19 19 16 15 13 13 13 13 13 13 12 10 10 9 7 9 8 8 6 7 6 4 4 4 3 3 3 2 4 2 7 5 5 5 5 5 5 5 5
20 19 19 18 21 19 16 15 14 13 13 13 13 14 12 11 10 10 10 9 10 8 8 8 6 8 7 6 6 6 4 5 6 4 8 7 7 6 6 7 7 7 7
19 19 21 23 24 18 17 15 14 13 13 12 13 13 12 11 10 10 11 11 10 10 9 9 9 9 8 8 8 8 7 8 9 8 8 12 9 9 9 10 10 10 10
18 17 20 24 24 18 16 15 14 13 12 13 12 12 13 11 10 10 10 11 11 11 10 10 10 10 10 10 11 11 11 10 11 11 10 12 14 13 14 14 14 14 13
18 17 18 21 21 21 16 15 14 13 12 12 12 14 14 14 12 11 10 10 10 11 11 11 12 11 11 12 13 13 13 13 13 13 13 12 14 17 18 19 19 18 17
17 18 15 17 19 21 16 15 14 14 13 11 12 13 14 13 14 12 10 10 10 10 11 12 12 13 13 13 13 13 14 14 14 15 14 14 15 15 19 21 22 21 20
17 17 16 14 14 17 15 14 16 13 14 13 12 12 13 14 13 13 11 11 12 11 12 12 13 13 13 15 15 15 15 14 15 16 16 17 18 18 17 20 22 24 24
16 16 16 16 16 16 16 14 12 13 13 13 13 13 14 13 14 14 12 12 12 12 13 14 15 14 13 12 13 15 14 15 15 17 19 19 20 21 21 22 23 26 30
16 17 18 19 19 19 19 16 15 14 13 13 13 16 15 15 16 17 14 12 13 13 14 15 16 17 17 18 11 12 13 15 13 14 15 19 19 20 23 25 24 25 23
15 18 18 19 21 22 18 16 14 13 12 10 11 12 14 14 16 16 15 13 18 14 14 18 22 23 25 26 24 32 34 37 42 33 29 18 17 19 26 28 26 27 25
17 18 18 18 20 23 20 19 16 13 16 14 13 16 16 17 19 22 17 15 15 21 23 26 29 32 31 33 36 32 21 29 29 32 38 45 44 43 34 27 31 31 31
15 16 20 21 22 21 24 18 20 16 14 15 22 20 19 21 20 18 18 20 22 30 27 33 36 32 28 28 27 28 35 33 24 24 25 31 43 41 42 39 40 43 36
13 15 17 19 20 22 22 21 19 18 22 21 20 20 17 17 17 17 20 19 19 20 20 18 18 17 17 16 18 20 22 27 34 35 30 27 25 30 35 38 40 40 43
11 12 13 15 16 18 19 20 22 22 23 22 19 18 18 18 18 18 15 14 12 13 16 17 18 19 20 20 21 22 24 23 24 23 32 35 32 36 32 31 28 31 37
Wind_Direction
161 166 166 167 163 160 162 162 164 162 155 149 144 140 133 135 140 139 136 129 123 124 128 127 128 125 112 109 114 106 101 106 112 112 112 111 114 116 112 104 97 116 118
157 164 162 165 167 165 165 165 166 166 162 157 154 151 146 146 144 141 137 133 136 137 137 137 135 125 110 117 119 120 118 119 121 112 108 110 118 122 124 121 135 122 123
155 160 162 165 168 170 170 170 172 171 171 169 165 160 156 153 146 145 148 145 144 147 144 140 135 123 118 119 119 121 121 120 112 102 95 124 114 128 131 129 125 124 125
155 158 164 165 167 169 172 173 175 176 177 175 172 166 164 163 159 161 163 165 155 149 153 148 134 120 117 118 123 127 125 118 112 97 105 115 120 126 126 127 124 121 120
156 157 168 165 166 167 170 172 175 180 182 181 177 174 172 169 170 174 168 158 148 142 142 136 126 118 115 112 116 119 120 119 107 88 130 128 135 140 142 131 120 132 128
156 162 169 166 165 166 168 170 175 181 183 183 182 178 177 177 173 168 161 158 154 147 139 133 124 119 114 107 102 105 116 113 90 124 133 140 145 138 140 145 144 144 143
156 168 169 169 168 169 169 170 175 182 185 182 180 178 179 172 164 160 152 150 155 151 143 134 125 123 119 103 96 92 94 112 104 122 126 123 164 139 144 144 142 144 148
160 168 171 171 172 173 171 173 175 180 182 182 180 175 172 167 161 153 139 138 147 146 145 137 129 126 120 104 99 86 83 99 91 145 132 130 153 141 153 150 153 155 155
162 167 167 172 176 177 177 176 175 175 174 174 171 168 168 165 162 154 136 136 141 148 151 146 136 126 114 105 86 82 80 105 123 145 140 144 148 144 147 154 158 156 154
164 172 173 172 174 177 182 178 175 175 175 170 168 167 168 168 168 164 150 148 145 157 160 153 147 135 121 88 61 52 61 110 108 178 138 206 155 144 148 153 157 156 152
167 175 169 174 178 173 179 181 176 177 175 172 173 173 170 163 167 165 169 177 158 162 170 168 168 164 135 28 11 26 39 56 178 177 173 187 166 150 147 157 160 157 167
169 174 174 175 179 175 181 182 174 177 179 174 177 181 167 180 175 172 204 178 173 167 179 184 192 198 191 240 316 345 81 201 211 217 215 220 181 167 160 170 170 172 171
175 171 177 177 179 180 181 182 180 183 186 187 184 181 179 190 200 181 197 190 188 190 186 208 223 236 236 244 246 256 280 211 234 236 243 240 211 200 194 200 206 200 201
175 179 174 182 181 182 184 181 187 184 189 192 193 188 194 188 200 195 196 197 197 213 206 209 223 228 236 251 255 251 259 237 253 248 266 256 243 234 233 229 226 228 232
175 184 180 186 186 185 186 189 193 191 189 194 196 200 199 195 200 204 205 203 209 216 221 229 230 243 256 266 266 268 264 251 249 249 246 258 260 259 253 248 245 239 239
172 183 190 193 200 184 192 196 199 198 202 194 202 208 202 201 209 207 214 213 218 221 227 237 248 252 261 263 268 268 266 262 259 254 255 266 250 259 263 256 252 250 247
173 180 195 198 201 184 201 205 203 210 207 207 204 211 209 210 221 203 217 223 230 234 236 247 245 258 260 266 269 268 271 268 262 261 258 250 266 262 260 258 256 255 253
179 184 189 199 201 199 202 208 210 212 211 218 212 214 219 220 221 229 226 233 237 240 243 248 255 257 266 271 273 270 267 268 265 261 266 258 258 257 274 257 255 255 257
188 194 199 206 208 201 209 213 208 210 211 216 219 218 223 221 225 231 231 240 250 250 248 251 257 265 266 268 271 277 275 267 265 270 262 266 265 259 256 265 261 253 255
197 207 213 208 199 199 201 205 211 212 212 211 217 222 225 228 232 238 239 243 254 260 259 263 259 259 263 267 266 266 272 274 271 268 270 271 271 267 265 259 262 263 252
203 208 211 209 208 205 198 203 205 208 210 214 215 220 231 237 236 238 241 244 254 253 254 262 279 276 277 277 291 293 288 293 287 288 277 272 261 264 265 264 264 254 254
204 210 212 209 210 210 204 197 202 204 206 201 209 220 231 236 246 252 243 235 235 251 282 280 283 278 275 274 277 282 288 279 266 276 270 272 283 278 264 262 262 256 251
207 210 209 208 209 209 202 201 202 199 203 210 225 234 235 237 251 255 255 251 246 252 254 243 261 271 270 260 257 250 249 258 268 268 268 267 265 269 275 269 269 263 256
209 212 213 213 213 209 212 207 208 206 215 215 229 245 255 253 255 264 265 257 256 250 252 247 254 263 268 264 267 252 254 254 264 272 279 276 257 272 266 274 280 271 261
200 206 212 216 216 218 217 209 217 219 227 239 245 249 250 255 256 254 261 265 260 255 259 257 253 247 245 250 254 262 264 276 263 249 267 264 270 270 280 280 270 278 269
194 199 199 203 212 217 219 221 222 230 237 241 238 241 248 252 257 262 266 265 253 247 252 253 251 254 259 263 264 261 266 267 272 259 262 263 268 263 269 275 274 274 272